[[{"header":{"parameterUnit":"m.s-1","parameterCategory":2,"la1":30.2991,"la2":30.254,"lo1":-89.0895,"lo2":-89.0444,"dy":0.0017,"dx":0.0017,"nx":28,"ny":28,"refTime":"2024-08-27T03:00:00:Z","depth":"0","parameterNumber":2,"parameterNumberName":"U-component_of_CURRENTS"},"data":[0,0,0,0,0,0,0,0,0,0,0,0,0,0,0,0,0,0,0,0,0,0,0,0,0,0,0,0,0,0,0,0,0,0,0,0,0,0,0,0,0,0,0,0,0,0,0,0,0,0,0,0,0,0,0,0,0,0,0.2236,0.2235,0,0.2184,0.2183,0.2183,0.2159,0.2159,0.2159,0.216,0.2055,0.2052,0.2049,0,0,0,0,0,0,0,0,0,0,0,0,0,0.2284,0.2284,0.2236,0.2235,0.2235,0.2184,0.2183,0.2182,0.2159,0.2159,0.216,0.216,0.2056,0.2053,0.2049,0,0,0,0,0,0,0,0,0,0,0,0,0,0.2249,0.2283,0.2236,0.2219,0.2217,0.2184,0.2183,0.2182,0.2159,0.2159,0.216,0.216,0.2058,0.2053,0.2049,0.2012,0,0,0.2035,0.2033,0,0,0,0,0,0,0,0,0.2251,0.2247,0.2222,0.222,0.2218,0.2181,0.2162,0.2123,0.2159,0.2178,0.216,0.216,0.2094,0.2086,0.2073,0.2007,0.2002,0.2034,0.2031,0.2029,0.2028,0,0,0,0,0,0,0,0.2253,0.2249,0.2213,0.2222,0.2219,0.2204,0.22,0.2155,0.2131,0.2177,0.2175,0.2174,0.2092,0.2077,0.207,0.2001,0.2034,0.203,0.2027,0.2026,0.1907,0.1906,0,0,0,0,0,0,0.2266,0.2251,0.2214,0.2211,0.2239,0.2203,0.2198,0.219,0.2133,0.2126,0.2173,0.2173,0.2085,0.2075,0.2066,0.2026,0.2029,0.2025,0.2023,0.1907,0.1906,0.1906,0,0,0,0,0,0,0.2267,0.2263,0.2216,0.2233,0.2226,0.2202,0.2194,0.2189,0.2175,0.2131,0.2123,0.2165,0.2085,0.2072,0.2026,0.2022,0.2023,0.2019,0.1907,0.1907,0.1906,0.1941,0,0,0,0,0,0,0.2268,0.2263,0.2258,0.2233,0.2226,0.2193,0.2193,0.2188,0.2174,0.2173,0.2121,0.2112,0.2084,0.2034,0.2022,0.2015,0.2015,0.1908,0.1907,0.1906,0.194,0.1942,0.1943,0,0,0,0,0,0.227,0.2249,0.2258,0.2253,0.222,0.2193,0.2187,0.2171,0.2174,0.216,0.2131,0.2113,0.2021,0.2029,0.2016,0.2008,0.1908,0.1907,0.1906,0.194,0.1941,0.1943,0,0,0,0,0,0,0.226,0.2245,0.2253,0.2228,0.2217,0.219,0.2173,0.2171,0.2137,0.2134,0.2101,0.2088,0.205,0.202,0.2031,0.1971,0.1964,0.196,0.1994,0.1995,0.1996,0.1989,0.2012,0,0,0,0,0,0.2261,0.2246,0.2235,0.2217,0.2211,0.2197,0.2184,0.2176,0.2148,0.2135,0.2103,0.2067,0.2034,0.2009,0.1973,0.1932,0.1931,0.1919,0.1921,0.1922,0.1907,0.1923,0.1925,0.1903,0.1903,0.1903,0,0,0.2254,0.2244,0.2236,0.2216,0.2204,0.2185,0.2188,0.2167,0.2151,0.2126,0.2088,0.2067,0.2025,0.1987,0.1967,0.1961,0.193,0.1921,0.1922,0.1906,0.1923,0.1925,0.1927,0.1902,0.1902,0.1902,0,0,0.2226,0.2224,0.2203,0.2195,0.2182,0.2171,0.2169,0.2146,0.2136,0.2102,0.2088,0.2063,0.2003,0.1978,0.1957,0.1937,0.1939,0.1932,0.1926,0.1943,0.1945,0.1947,0.1964,0.1967,0.193,0.193,0.193,0,0.2216,0.2196,0.2192,0.2173,0.2167,0.2167,0.2148,0.2132,0.21,0.2092,0.2091,0.2029,0.1996,0.1959,0.1954,0.1939,0.1955,0.1928,0.1947,0.1949,0.195,0.1966,0.1969,0.1931,0.1931,0.1931,0.1931,0,0.2175,0.2165,0.215,0.2133,0.2124,0.2106,0.2098,0.2086,0.2083,0.2071,0.2043,0.201,0.1976,0.1968,0.1949,0.1941,0.1952,0.1954,0.195,0.1955,0.1971,0.1974,0.1934,0.1933,0.1933,0.1932,0,0,0.2124,0.2123,0.2116,0.2119,0.2106,0.2093,0.2075,0.2058,0.2052,0.2029,0.2017,0.197,0.1972,0.1948,0.1937,0.1941,0.197,0.1952,0.1953,0.1979,0.2018,0.1907,0.1899,0.1991,0.1992,0.1992,0.2031,0,0.2091,0.2065,0.2069,0.2049,0.204,0.205,0.2037,0.2028,0.202,0.2007,0.199,0.1967,0.196,0.1954,0.1959,0.1963,0.1976,0.1959,0.1998,0.1999,0.1908,0.1897,0.1798,0.1814,0.2034,0.2034,0.2035,0,0.2041,0.2038,0.2017,0.2032,0.2028,0.2016,0.2014,0.2003,0.1992,0.199,0.1977,0.1968,0.1955,0.1959,0.1977,0.1974,0.1993,0.2002,0.2005,0.1883,0.189,0.1839,0.181,0.1673,0.2039,0.2038,0.2038,0,0.2009,0.1999,0.199,0.199,0.1998,0.1996,0.1998,0.1993,0.199,0.198,0.1978,0.1971,0.1965,0.1989,0.2001,0.2,0.2033,0.2037,0.1957,0.1951,0.1857,0.184,0.1701,0.2057,0.2057,0.2057,0.2057,0,0.197,0.1951,0.1977,0.1971,0.1966,0.198,0.1972,0.1975,0.1977,0.197,0.197,0.1966,0.1975,0.1991,0.2011,0.1981,0.2047,0.194,0.1943,0.1865,0.1849,0.1717,0.1717,0.2058,0.2058,0.2058,0.2057,0,0.1906,0.1927,0.1922,0.1945,0.1951,0.1944,0.1961,0.1957,0.1967,0.1959,0.1957,0.1966,0.1988,0.2003,0.2036,0.1973,0.1894,0.1959,0.1857,0.1843,0.1576,0.1585,0.1488,0.1449,0.1845,0.1843,0.184,0,0.1857,0.1856,0.1897,0.1909,0.1913,0.1915,0.1921,0.1942,0.1944,0.1959,0.1955,0.1971,0.1986,0.1975,0.1906,0.1897,0.1851,0.1726,0.1673,0.1517,0.1533,0.1535,0.1512,0.1589,0.1585,0.1582,0.1579,0,0.1776,0.1805,0.1815,0.1852,0.1867,0.1879,0.1891,0.1899,0.1922,0.193,0.195,0.1969,0.194,0.1871,0.1801,0.1748,0.159,0.1649,0.1528,0.1329,0.1288,0.1267,0.1618,0.1549,0.1552,0.1554,0.1556,0.1557,0.1713,0.1714,0.1762,0.179,0.1811,0.1837,0.1842,0.1867,0.1883,0.1888,0.1929,0.1937,0.1831,0.1727,0.1613,0.1271,0.142,0.1149,0.1183,0.1204,0.111,0.1367,0.1267,0.1268,0.1269,0.127,0.1271,0,0.1645,0.1672,0.1698,0.1742,0.1754,0.1788,0.1814,0.1822,0.1839,0.1855,0.1873,0.1792,0.1614,0.1427,0.1053,0.0833,0.0803,0.0732,0.0718,0.073,0.0972,0.0893,0.0657,0.0657,0.0657,0.0657,0.0658,0.0658,0.161,0.1623,0.1658,0.168,0.1707,0.1713,0.1732,0.1751,0.1768,0.1734,0.169,0.1682,0.1444,0.0983,0.0528,0.0443,0.0376,0.0356,0.039,0.0534,0.0575,0.0615,0.0533,0.0225,0.0225,0.0094,0.0093,0.0092]},{"header":{"parameterUnit":"m.s-1","parameterCategory":2,"la1":30.2991,"la2":30.254,"lo1":-89.0895,"lo2":-89.0444,"dy":0.0017,"dx":0.0017,"nx":28,"ny":28,"refTime":"2024-08-27T03:00:00:Z","depth":"0","parameterNumber":3,"parameterNumberName":"V-component_of_CURRENTS"},"data":[0,0,0,0,0,0,0,0,0,0,0,0,0,0,0,0,0,0,0,0,0,0,0,0,0,0,0,0,0,0,0,0,0,0,0,0,0,0,0,0,0,0,0,0,0,0,0,0,0,0,0,0,0,0,0,0,0,0,-0.0165,-0.0165,0,-0.015,-0.015,-0.015,-0.011,-0.0109,-0.0108,-0.0108,-0.0041,-0.004,-0.0039,0,0,0,0,0,0,0,0,0,0,0,0,0,-0.0149,-0.015,-0.0165,-0.0165,-0.0165,-0.015,-0.015,-0.015,-0.011,-0.0109,-0.0108,-0.0107,-0.0041,-0.004,-0.0039,0,0,0,0,0,0,0,0,0,0,0,0,0,-0.0147,-0.015,-0.0165,-0.0144,-0.0142,-0.015,-0.015,-0.015,-0.011,-0.0109,-0.0108,-0.0107,-0.0042,-0.004,-0.0039,-0.0052,0,0,-0.0034,-0.0033,0,0,0,0,0,0,0,0,-0.0147,-0.0147,-0.0147,-0.0145,-0.0143,-0.0132,-0.012,-0.0115,-0.0111,-0.0121,-0.0108,-0.0106,-0.0068,-0.0064,-0.0063,-0.0049,-0.0046,-0.0034,-0.0033,-0.0032,-0.0031,0,0,0,0,0,0,0,-0.0147,-0.0147,-0.0158,-0.0147,-0.0145,-0.0132,-0.013,-0.0119,-0.01,-0.012,-0.0118,-0.0118,-0.0066,-0.0065,-0.0061,-0.0045,-0.0034,-0.0032,-0.0031,-0.0031,-0.0002,-0.0002,0,0,0,0,0,0,-0.0153,-0.0148,-0.0159,-0.0158,-0.0143,-0.0133,-0.0131,-0.0136,-0.0101,-0.0095,-0.0119,-0.0116,-0.0068,-0.0063,-0.0059,-0.0046,-0.0032,-0.003,-0.003,-0.0002,-0.0002,-0.0002,0,0,0,0,0,0,-0.0152,-0.0154,-0.0159,-0.0153,-0.0153,-0.0135,-0.014,-0.0136,-0.0131,-0.01,-0.0093,-0.0118,-0.0067,-0.0061,-0.0046,-0.0044,-0.003,-0.0028,-0.0001,-0.0002,-0.0002,-0.0038,0,0,0,0,0,0,-0.0152,-0.0154,-0.0162,-0.0153,-0.0153,-0.0168,-0.0141,-0.0137,-0.0134,-0.013,-0.0097,-0.009,-0.0066,-0.0049,-0.0045,-0.0042,-0.0027,-0.0001,-0.0001,-0.0002,-0.0037,-0.004,-0.0042,0,0,0,0,0,-0.0152,-0.0173,-0.0162,-0.0163,-0.0163,-0.0169,-0.0168,-0.015,-0.0135,-0.014,-0.0113,-0.0091,-0.0047,-0.0048,-0.0043,-0.004,-0.0001,-0.0001,-0.0002,-0.0036,-0.0039,-0.0042,0,0,0,0,0,0,-0.0188,-0.0171,-0.0159,-0.0178,-0.0173,-0.0162,-0.0171,-0.0156,-0.0141,-0.0134,-0.0099,-0.009,-0.0075,-0.0057,-0.0058,-0.0032,-0.0019,-0.0018,-0.0046,-0.0049,-0.0052,-0.0041,-0.0026,0,0,0,0,0,-0.0196,-0.0198,-0.0185,-0.0204,-0.0201,-0.0185,-0.0186,-0.0172,-0.0158,-0.015,-0.0127,-0.01,-0.0075,-0.0062,-0.0043,-0.0035,0.0,-0.0028,-0.003,-0.0033,-0.0021,0.0039,0.0043,-0.0003,-0.0003,-0.0003,0,0,-0.0219,-0.021,-0.0214,-0.021,-0.0205,-0.0203,-0.0183,-0.0188,-0.018,-0.0146,-0.0135,-0.0112,-0.0076,-0.0062,-0.0053,-0.0045,-0.0007,-0.0033,-0.0036,-0.0022,0.0039,0.0044,0.0048,-0.0004,-0.0004,-0.0004,0,0,-0.0259,-0.0256,-0.0261,-0.0253,-0.0242,-0.0229,-0.023,-0.0217,-0.0204,-0.0195,-0.0161,-0.0135,-0.0112,-0.0078,-0.0058,-0.0066,-0.0025,-0.0064,-0.0066,-0.001,-0.0005,-0.0,0.0027,0.0034,-0.0063,-0.0063,-0.0063,0,-0.0289,-0.0283,-0.0269,-0.0267,-0.0258,-0.024,-0.0239,-0.0231,-0.0214,-0.0196,-0.0195,-0.0136,-0.0114,-0.007,-0.0074,-0.007,-0.004,-0.0058,-0.0012,-0.0006,-0.0001,0.0026,0.0035,-0.0065,-0.0065,-0.0065,-0.0065,0,-0.0316,-0.031,-0.0319,-0.0297,-0.0293,-0.0294,-0.0272,-0.0265,-0.0248,-0.0226,-0.0189,-0.0159,-0.0115,-0.0111,-0.0095,-0.0047,-0.0041,-0.0024,-0.0002,0.0002,0.0029,0.0039,-0.0068,-0.0067,-0.0067,-0.0066,0,0,-0.0388,-0.0342,-0.0343,-0.032,-0.0301,-0.0296,-0.0289,-0.0262,-0.024,-0.0224,-0.0186,-0.0154,-0.0128,-0.0103,-0.0078,-0.0035,0.0012,-0.0017,-0.0013,0.0011,0.0122,0.014,0.0152,0.0041,0.0044,0.0045,0.0117,0,-0.041,-0.0387,-0.0366,-0.0352,-0.0334,-0.0309,-0.0298,-0.0272,-0.0247,-0.0211,-0.0168,-0.013,-0.0128,-0.0102,-0.006,0.0004,0.0041,-0.0009,0.0114,0.0117,0.0135,0.0166,0.0209,0.0279,0.0127,0.0128,0.013,0,-0.0436,-0.0409,-0.0385,-0.0337,-0.033,-0.0324,-0.0281,-0.0268,-0.0219,-0.0198,-0.0153,-0.0119,-0.0057,-0.0056,0.0054,0.0023,0.0069,0.011,0.0115,0.0158,0.0155,0.0256,0.0303,0.0315,0.0145,0.0144,0.0143,0,-0.0453,-0.0422,-0.0391,-0.0377,-0.0331,-0.0318,-0.03,-0.026,-0.0235,-0.0182,-0.0155,-0.0084,-0.0039,0.0035,0.0108,0.009,0.0231,0.022,0.0274,0.0275,0.0351,0.0355,0.0433,0.0303,0.0302,0.0302,0.0302,0,-0.0462,-0.0439,-0.0393,-0.0373,-0.0344,-0.0318,-0.0287,-0.0262,-0.0218,-0.0178,-0.0144,-0.0096,-0.001,0.0072,0.013,0.0239,0.0252,0.0289,0.0309,0.0335,0.0337,0.0383,0.0352,0.0305,0.0304,0.0304,0.0303,0,-0.0462,-0.0433,-0.0399,-0.0356,-0.0344,-0.0322,-0.0282,-0.0255,-0.0224,-0.017,-0.0152,-0.0082,0.003,0.0114,0.0244,0.0272,0.0388,0.0401,0.0409,0.0428,0.0474,0.0438,0.0513,0.0545,0.0472,0.0473,0.0474,0,-0.0447,-0.0426,-0.0387,-0.0371,-0.0348,-0.0316,-0.0292,-0.0258,-0.0228,-0.0158,-0.0126,-0.0021,0.0075,0.0255,0.0356,0.0477,0.0458,0.054,0.0516,0.05,0.0475,0.0429,0.0447,0.0591,0.0593,0.0594,0.0595,0,-0.0422,-0.0413,-0.0382,-0.0354,-0.033,-0.0296,-0.026,-0.0236,-0.019,-0.0141,-0.0055,0.0027,0.02,0.0374,0.0512,0.0563,0.0544,0.0572,0.0579,0.0599,0.0535,0.0567,0.0487,0.0608,0.0607,0.0606,0.0605,0.0605,-0.041,-0.0387,-0.0359,-0.0328,-0.0304,-0.0266,-0.0229,-0.0182,-0.0119,0.0,0.0028,0.0213,0.0385,0.0608,0.0642,0.0718,0.0662,0.0725,0.0688,0.0646,0.0668,0.0596,0.0722,0.0721,0.0721,0.072,0.072,0,-0.0395,-0.0364,-0.0335,-0.0297,-0.0264,-0.0255,-0.0196,-0.014,-0.0048,0.0107,0.0219,0.0493,0.0659,0.0771,0.0864,0.0852,0.0825,0.0822,0.0779,0.0799,0.0779,0.0776,0.0892,0.0892,0.0892,0.0892,0.0892,0.0892,-0.0383,-0.0348,-0.0326,-0.0265,-0.0237,-0.0177,-0.0136,-0.0039,0.0087,0.0344,0.0559,0.0706,0.082,0.0835,0.0888,0.0891,0.0878,0.0846,0.0834,0.0818,0.0806,0.0795,0.0788,0.0905,0.0905,0.0893,0.0892,0.0892]}],[{"header":{"parameterUnit":"m.s-1","parameterCategory":2,"la1":30.2991,"la2":30.254,"lo1":-89.0895,"lo2":-89.0444,"dy":0.0017,"dx":0.0017,"nx":28,"ny":28,"refTime":"2024-08-27T03:00:00:Z","depth":"2","parameterNumber":2,"parameterNumberName":"U-component_of_CURRENTS"},"data":[0,0,0,0,0,0,0,0,0,0,0,0,0,0,0,0,0,0,0,0,0,0,0,0,0,0,0,0,0,0,0,0,0,0,0,0,0,0,0,0,0,0,0,0,0,0,0,0,0,0,0,0,0,0,0,0,0,0,0.0635,0.0635,0,0.0655,0.0655,0.0656,0.0676,0.0676,0.0677,0.0677,0.0705,0.0705,0.0705,0,0,0,0,0,0,0,0,0,0,0,0,0,0.0656,0.0656,0.0635,0.0635,0.0635,0.0655,0.0655,0.0656,0.0676,0.0677,0.0677,0.0677,0.0704,0.0705,0.0705,0,0,0,0,0,0,0,0,0,0,0,0,0,0.0659,0.0655,0.0635,0.0648,0.0649,0.0655,0.0655,0.0656,0.0676,0.0677,0.0677,0.0677,0.0704,0.0705,0.0706,0.0701,0,0,0.0708,0.0708,0,0,0,0,0,0,0,0,0.0658,0.0658,0.0646,0.0647,0.0649,0.0664,0.0673,0.0671,0.0676,0.0666,0.0677,0.0678,0.0691,0.0693,0.0696,0.0702,0.0704,0.0708,0.0708,0.0708,0.0709,0,0,0,0,0,0,0,0.0658,0.0657,0.0643,0.0646,0.0648,0.0668,0.0668,0.0673,0.0676,0.0667,0.0668,0.0671,0.0692,0.0695,0.0696,0.0704,0.0708,0.0708,0.0709,0.0709,0.0765,0.0766,0,0,0,0,0,0,0.0653,0.0657,0.0642,0.0643,0.0655,0.0667,0.0667,0.0658,0.0676,0.0679,0.067,0.0672,0.0693,0.0696,0.0697,0.0734,0.0708,0.0709,0.0709,0.0764,0.0765,0.0766,0,0,0,0,0,0,0.0653,0.0651,0.0641,0.0652,0.0652,0.0666,0.0656,0.0659,0.0677,0.0678,0.0682,0.0688,0.0694,0.0697,0.0718,0.0733,0.0709,0.071,0.0762,0.0764,0.0765,0.078,0,0,0,0,0,0,0.0653,0.0651,0.0655,0.0651,0.0651,0.0657,0.0655,0.0659,0.0677,0.068,0.0694,0.0696,0.0694,0.0717,0.0719,0.0734,0.0711,0.0761,0.0763,0.0765,0.0778,0.0782,0.0785,0,0,0,0,0,0.0654,0.0654,0.0654,0.0653,0.0651,0.0658,0.066,0.0672,0.0678,0.069,0.0701,0.0697,0.0731,0.0718,0.072,0.0736,0.076,0.0762,0.0765,0.0777,0.0781,0.0785,0,0,0,0,0,0,0.0679,0.0656,0.0656,0.0653,0.0661,0.0662,0.0676,0.0681,0.0698,0.0706,0.0706,0.0709,0.0734,0.0736,0.0722,0.076,0.0747,0.075,0.0755,0.076,0.0763,0.0763,0.0711,0,0,0,0,0,0.0682,0.067,0.0663,0.0667,0.0669,0.0676,0.0684,0.0691,0.07,0.0709,0.0719,0.0732,0.0743,0.0752,0.0762,0.078,0.0822,0.0794,0.0798,0.08,0.0803,0.0893,0.0905,0.0774,0.0774,0.0774,0,0,0.0696,0.0682,0.0679,0.0671,0.0678,0.0684,0.0682,0.0699,0.071,0.0709,0.0734,0.0744,0.0751,0.0772,0.0784,0.0777,0.0863,0.0804,0.0806,0.0807,0.0897,0.091,0.0921,0.0775,0.0775,0.0775,0,0,0.0712,0.0703,0.0698,0.0701,0.0708,0.0707,0.0715,0.0723,0.0733,0.0754,0.0758,0.0779,0.0796,0.0804,0.0808,0.0839,0.0878,0.0846,0.0862,0.0949,0.0961,0.0972,0.1052,0.107,0.0848,0.0848,0.0848,0,0.0738,0.072,0.0706,0.0706,0.0714,0.0717,0.0728,0.0735,0.0753,0.0763,0.0768,0.0804,0.081,0.0832,0.0843,0.0846,0.0906,0.0842,0.0955,0.0966,0.0977,0.1057,0.1077,0.0849,0.0849,0.0849,0.0849,0,0.0742,0.0741,0.0744,0.0735,0.0743,0.0756,0.0757,0.0773,0.0785,0.079,0.0823,0.0836,0.0857,0.0864,0.0861,0.093,0.0953,0.095,0.0944,0.0991,0.1072,0.1093,0.085,0.085,0.085,0.0849,0,0,0.078,0.0749,0.0758,0.0758,0.0759,0.0769,0.0782,0.0794,0.0809,0.0831,0.0853,0.0876,0.0888,0.0895,0.0901,0.0968,0.1095,0.0995,0.0999,0.1074,0.1304,0.1132,0.1138,0.1125,0.1128,0.1131,0.1334,0,0.0798,0.0795,0.0776,0.0796,0.0798,0.0799,0.0812,0.0825,0.0836,0.0858,0.0874,0.0899,0.0897,0.0915,0.0982,0.1056,0.1148,0.104,0.1247,0.1253,0.1094,0.1154,0.0952,0.11,0.1354,0.1357,0.136,0,0.0818,0.0808,0.082,0.0817,0.0821,0.0837,0.0859,0.0867,0.0884,0.0895,0.0918,0.0927,0.0991,0.0996,0.1172,0.1111,0.1219,0.1286,0.1296,0.114,0.1117,0.1092,0.1127,0.1393,0.1391,0.1388,0.1386,0,0.0853,0.0848,0.0856,0.0858,0.0853,0.0871,0.0876,0.089,0.0897,0.0922,0.0935,0.0998,0.1042,0.1173,0.128,0.1257,0.1488,0.1473,0.143,0.1421,0.1286,0.1256,0.1644,0.1644,0.1643,0.1643,0.1642,0,0.0876,0.0891,0.0878,0.0886,0.0908,0.09,0.0927,0.0933,0.0944,0.0958,0.0962,0.0995,0.1098,0.1208,0.1321,0.1417,0.1533,0.1444,0.146,0.1282,0.1251,0.1525,0.1508,0.165,0.1649,0.1647,0.1646,0,0.0916,0.0905,0.0917,0.0918,0.0925,0.0945,0.0951,0.0962,0.097,0.0992,0.1002,0.1037,0.117,0.1272,0.1484,0.1449,0.1573,0.16,0.1362,0.1342,0.1447,0.1429,0.1562,0.1557,0.1554,0.1551,0.1548,0,0.0924,0.0934,0.0946,0.0956,0.0961,0.098,0.099,0.0987,0.099,0.102,0.1033,0.1133,0.1203,0.1376,0.1334,0.1452,0.1599,0.1317,0.1199,0.1435,0.144,0.1428,0.1415,0.1068,0.1061,0.1056,0.1052,0,0.0937,0.0954,0.0958,0.098,0.0997,0.1003,0.1013,0.1016,0.1015,0.1038,0.1094,0.1155,0.1204,0.1145,0.118,0.1228,0.1248,0.1206,0.158,0.1064,0.097,0.0973,0.0978,0.1006,0.101,0.1014,0.1016,0.1018,0.095,0.0954,0.0964,0.0989,0.1007,0.1013,0.1015,0.1023,0.1035,0.1049,0.1116,0.1104,0.1025,0.0929,0.0947,0.0879,0.0975,0.0921,0.0939,0.0962,0.0813,0.071,0.0673,0.0676,0.0678,0.068,0.0682,0,0.0936,0.0946,0.0963,0.0972,0.0982,0.1015,0.1016,0.0997,0.1013,0.103,0.1083,0.0799,0.0749,0.0737,0.0495,0.0438,0.0474,0.048,0.051,0.055,0.0588,0.0423,0.018,0.018,0.018,0.018,0,0,0.0919,0.0918,0.0922,0.093,0.0962,0.0973,0.0982,0.0966,0.0946,0.0834,0.0738,0.0823,0.0685,0.0431,0.0366,0.026,0.0456,0.0259,0.064,0.072,0.0761,0.0788,0.057,0,0,0,0,0]},{"header":{"parameterUnit":"m.s-1","parameterCategory":2,"la1":30.2991,"la2":30.254,"lo1":-89.0895,"lo2":-89.0444,"dy":0.0017,"dx":0.0017,"nx":28,"ny":28,"refTime":"2024-08-27T03:00:00:Z","depth":"2","parameterNumber":3,"parameterNumberName":"V-component_of_CURRENTS"},"data":[0,0,0,0,0,0,0,0,0,0,0,0,0,0,0,0,0,0,0,0,0,0,0,0,0,0,0,0,0,0,0,0,0,0,0,0,0,0,0,0,0,0,0,0,0,0,0,0,0,0,0,0,0,0,0,0,0,0,-0.0011,-0.0011,0,0.0,0.0,0.0,-0.0049,-0.005,-0.0051,-0.0053,-0.0165,-0.0167,-0.0168,0,0,0,0,0,0,0,0,0,0,0,0,0,-0.0112,-0.0109,-0.0011,-0.0011,-0.001,0.0,0.0,0.0,-0.0049,-0.005,-0.0052,-0.0053,-0.0164,-0.0166,-0.0169,0,0,0,0,0,0,0,0,0,0,0,0,0,-0.0083,-0.0109,-0.0011,-0.0032,-0.0034,0.0,0.0,0.0,-0.0048,-0.005,-0.0052,-0.0054,-0.0164,-0.0166,-0.0169,-0.0148,0,0,-0.0177,-0.0178,0,0,0,0,0,0,0,0,-0.0084,-0.0079,-0.0029,-0.0031,-0.0032,-0.0026,-0.0076,-0.0055,-0.0048,-0.0045,-0.0053,-0.0055,-0.0127,-0.0133,-0.0128,-0.0153,-0.0158,-0.0178,-0.0179,-0.018,-0.0181,0,0,0,0,0,0,0,-0.0086,-0.008,-0.0009,-0.0029,-0.0031,-0.0054,-0.0052,-0.0072,-0.008,-0.0045,-0.0048,-0.0043,-0.0129,-0.0125,-0.0131,-0.016,-0.0177,-0.018,-0.0182,-0.0183,-0.0261,-0.0261,0,0,0,0,0,0,-0.0079,-0.0081,-0.0009,-0.0008,-0.0061,-0.005,-0.0048,-0.0028,-0.0077,-0.0084,-0.0042,-0.0045,-0.0119,-0.0128,-0.0135,-0.0192,-0.018,-0.0183,-0.0184,-0.0261,-0.0261,-0.0262,0,0,0,0,0,0,-0.008,-0.0072,-0.001,-0.0044,-0.0038,-0.0046,-0.0023,-0.0026,-0.0053,-0.0072,-0.0083,-0.0068,-0.0121,-0.0132,-0.0174,-0.0195,-0.0184,-0.0187,-0.026,-0.0261,-0.0261,-0.0257,0,0,0,0,0,0,-0.0083,-0.0072,-0.0074,-0.0043,-0.0035,-0.0001,-0.0021,-0.0025,-0.0044,-0.005,-0.0098,-0.0108,-0.0123,-0.0169,-0.0176,-0.0198,-0.0189,-0.0259,-0.026,-0.0261,-0.0257,-0.0257,-0.0258,0,0,0,0,0,-0.0087,-0.0074,-0.0074,-0.0066,-0.0031,-0.0,0.0001,-0.0014,-0.0044,-0.0048,-0.0086,-0.0109,-0.018,-0.0172,-0.018,-0.0203,-0.0259,-0.026,-0.0261,-0.0256,-0.0257,-0.0258,0,0,0,0,0,0,-0.0135,-0.0077,-0.0076,-0.0052,-0.0034,-0.0009,-0.002,-0.0027,-0.0057,-0.0083,-0.011,-0.0122,-0.0165,-0.0182,-0.0172,-0.0227,-0.0225,-0.0228,-0.0219,-0.022,-0.0221,-0.0216,-0.0191,0,0,0,0,0,-0.0138,-0.0111,-0.0069,-0.0058,-0.0048,-0.0041,-0.004,-0.0045,-0.0055,-0.0072,-0.0103,-0.0142,-0.0167,-0.0194,-0.0215,-0.0245,-0.0212,-0.0267,-0.0268,-0.0268,-0.027,-0.0215,-0.021,-0.0265,-0.0265,-0.0265,0,0,-0.0158,-0.0123,-0.0112,-0.0066,-0.006,-0.0038,-0.0047,-0.0048,-0.0048,-0.008,-0.0117,-0.0146,-0.0174,-0.0205,-0.0227,-0.023,-0.0233,-0.0269,-0.027,-0.0271,-0.0215,-0.0209,-0.0204,-0.0265,-0.0265,-0.0265,0,0,-0.0168,-0.0149,-0.0126,-0.0102,-0.0081,-0.0065,-0.0069,-0.0057,-0.0075,-0.0097,-0.0123,-0.016,-0.0205,-0.022,-0.0235,-0.0252,-0.0233,-0.0274,-0.0283,-0.0229,-0.0224,-0.0218,-0.0152,-0.0141,-0.0281,-0.0281,-0.0281,0,-0.0205,-0.0154,-0.0123,-0.0094,-0.0082,-0.0078,-0.0062,-0.0064,-0.0074,-0.0093,-0.0116,-0.0177,-0.0206,-0.0231,-0.0244,-0.0254,-0.0216,-0.0276,-0.0227,-0.0222,-0.0216,-0.015,-0.0138,-0.0281,-0.0281,-0.0281,-0.0281,0,-0.0178,-0.0154,-0.0144,-0.0097,-0.0082,-0.007,-0.0051,-0.0066,-0.0096,-0.0102,-0.0148,-0.0177,-0.0218,-0.0232,-0.025,-0.0243,-0.0223,-0.0226,-0.0219,-0.021,-0.0141,-0.0129,-0.0281,-0.0281,-0.0281,-0.0281,0,0,-0.0232,-0.0141,-0.0147,-0.0122,-0.0084,-0.0067,-0.0069,-0.0063,-0.0082,-0.0111,-0.0135,-0.0182,-0.0217,-0.0235,-0.0261,-0.0227,-0.0157,-0.0221,-0.0219,-0.0145,-0.0023,0.0002,0.0019,-0.0147,-0.0146,-0.0144,0.0016,0,-0.0235,-0.0172,-0.0133,-0.0105,-0.0072,-0.0062,-0.0061,-0.0065,-0.0088,-0.0109,-0.0144,-0.0183,-0.0211,-0.0249,-0.0217,-0.0175,-0.0127,-0.02,-0.0053,-0.0048,-0.0018,0.0033,0.0014,0.0156,0.0029,0.0031,0.0033,0,-0.023,-0.018,-0.0146,-0.009,-0.0082,-0.0086,-0.0091,-0.0088,-0.0108,-0.0132,-0.017,-0.0193,-0.0189,-0.0207,-0.0107,-0.0152,-0.0094,-0.0045,-0.0038,-0.0009,0.0,0.0121,0.0184,0.0055,0.0053,0.0051,0.005,0,-0.0267,-0.0199,-0.0175,-0.0155,-0.0096,-0.0118,-0.0114,-0.0125,-0.0131,-0.0166,-0.0179,-0.0173,-0.018,-0.0103,-0.003,-0.0064,0.0119,0.009,0.0179,0.0183,0.0197,0.0198,0.0186,0.0185,0.0185,0.0185,0.0184,0,-0.0266,-0.0254,-0.0204,-0.0189,-0.0187,-0.0156,-0.0184,-0.0182,-0.0193,-0.0192,-0.0216,-0.02,-0.0153,-0.006,0.0009,0.0148,0.0157,0.0198,0.023,0.0198,0.0197,0.012,0.011,0.0191,0.0189,0.0188,0.0187,0,-0.0302,-0.0268,-0.0237,-0.02,-0.0203,-0.0216,-0.0217,-0.0218,-0.024,-0.0237,-0.025,-0.0201,-0.0068,0.0021,0.0173,0.0201,0.0329,0.0376,0.0339,0.0362,0.0347,0.0335,0.049,0.0493,0.0495,0.0496,0.0498,0,-0.03,-0.0288,-0.0261,-0.0252,-0.0251,-0.0264,-0.0261,-0.0262,-0.0251,-0.0221,-0.02,-0.0101,0.0028,0.0262,0.0348,0.0513,0.0455,0.0523,0.0441,0.0366,0.0381,0.0366,0.0352,0.0475,0.0476,0.0477,0.0478,0,-0.0286,-0.0304,-0.0266,-0.0256,-0.0264,-0.0244,-0.0246,-0.023,-0.0215,-0.0177,-0.0071,0.0037,0.0228,0.0397,0.0554,0.0617,0.0488,0.0545,0.0511,0.0385,0.036,0.0371,0.0357,0.0486,0.0485,0.0484,0.0484,0.0483,-0.0289,-0.0262,-0.0233,-0.0222,-0.0232,-0.0207,-0.0172,-0.0124,-0.0057,0.0082,0.0127,0.034,0.0419,0.0723,0.0699,0.0609,0.065,0.0584,0.0578,0.0572,0.0525,0.0503,0.0649,0.0649,0.065,0.065,0.065,0,-0.0244,-0.022,-0.0188,-0.0156,-0.0142,-0.0195,-0.0134,-0.0034,0.0097,0.028,0.045,0.0625,0.0772,0.0769,0.066,0.0624,0.0569,0.0554,0.0475,0.0472,0.0468,0.0409,0.0506,0.0505,0.0503,0.0502,0,0,-0.0209,-0.0145,-0.0107,-0.0059,-0.0086,-0.0048,-0.0013,0.0157,0.033,0.0594,0.0742,0.1034,0.0953,0.0865,0.0758,0.0596,0.054,0.057,0.0706,0.0626,0.0621,0.0523,0.0436,0,0,0,0,0]}],[{"header":{"parameterUnit":"m.s-1","parameterCategory":2,"la1":30.2991,"la2":30.254,"lo1":-89.0895,"lo2":-89.0444,"dy":0.0017,"dx":0.0017,"nx":28,"ny":28,"refTime":"2024-08-27T03:00:00:Z","depth":"4","parameterNumber":2,"parameterNumberName":"U-component_of_CURRENTS"},"data":[0,0,0,0,0,0,0,0,0,0,0,0,0,0,0,0,0,0,0,0,0,0,0,0,0,0,0,0,0,0,0,0,0,0,0,0,0,0,0,0,0,0,0,0,0,0,0,0,0,0,0,0,0,0,0,0,0,0,-0.033,-0.0331,0,-0.0391,-0.0392,-0.0392,-0.042,-0.042,-0.042,-0.042,-0.0435,-0.0435,-0.0436,0,0,0,0,0,0,0,0,0,0,0,0,0,-0.0236,-0.0238,-0.033,-0.0331,-0.0332,-0.0391,-0.0392,-0.0392,-0.042,-0.042,-0.042,-0.042,-0.0435,-0.0435,-0.0436,0,0,0,0,0,0,0,0,0,0,0,0,0,-0.0282,-0.0238,-0.033,-0.0355,-0.0358,-0.0391,-0.0392,-0.0392,-0.042,-0.042,-0.042,-0.042,-0.0435,-0.0435,-0.0436,-0.0431,0,0,-0.0437,-0.0437,0,0,0,0,0,0,0,0,-0.028,-0.0285,-0.035,-0.0353,-0.0357,-0.0401,-0.0364,-0.0404,-0.042,-0.0393,-0.042,-0.0421,-0.0421,-0.0423,-0.043,-0.0432,-0.0433,-0.0437,-0.0437,-0.0437,-0.0437,0,0,0,0,0,0,0,-0.0276,-0.0283,-0.0351,-0.0351,-0.0356,-0.0363,-0.037,-0.0372,-0.0401,-0.0395,-0.0398,-0.041,-0.0422,-0.0429,-0.043,-0.0433,-0.0437,-0.0437,-0.0437,-0.0437,-0.0426,-0.0425,0,0,0,0,0,0,-0.0275,-0.028,-0.0349,-0.0353,-0.0322,-0.0365,-0.0372,-0.0384,-0.0403,-0.0407,-0.0409,-0.0411,-0.0429,-0.043,-0.0431,-0.0417,-0.0437,-0.0437,-0.0437,-0.0426,-0.0426,-0.0425,0,0,0,0,0,0,-0.0273,-0.028,-0.0347,-0.032,-0.033,-0.0367,-0.0379,-0.0385,-0.0394,-0.0414,-0.0417,-0.0413,-0.0429,-0.043,-0.0432,-0.0418,-0.0437,-0.0438,-0.0427,-0.0426,-0.0426,-0.0396,0,0,0,0,0,0,-0.027,-0.0279,-0.0281,-0.032,-0.0331,-0.0361,-0.038,-0.0386,-0.0402,-0.0404,-0.0418,-0.042,-0.0429,-0.0432,-0.0433,-0.0419,-0.0438,-0.0428,-0.0427,-0.0426,-0.0397,-0.0394,-0.0391,0,0,0,0,0,-0.0266,-0.0269,-0.028,-0.0289,-0.0334,-0.0361,-0.0366,-0.0391,-0.0402,-0.0401,-0.0413,-0.042,-0.0426,-0.0432,-0.0433,-0.0419,-0.0428,-0.0427,-0.0426,-0.0399,-0.0395,-0.0391,0,0,0,0,0,0,-0.0233,-0.0274,-0.0287,-0.0303,-0.0327,-0.0366,-0.0371,-0.0389,-0.0399,-0.04,-0.0416,-0.0419,-0.0415,-0.0421,-0.0427,-0.0413,-0.0427,-0.0426,-0.0406,-0.0402,-0.0399,-0.0384,-0.0438,0,0,0,0,0,-0.0226,-0.0236,-0.0276,-0.0288,-0.0299,-0.0333,-0.0346,-0.0364,-0.0384,-0.039,-0.0402,-0.0409,-0.0411,-0.041,-0.0415,-0.0407,-0.039,-0.0398,-0.0395,-0.0393,-0.0381,-0.0327,-0.0317,-0.0422,-0.0422,-0.0422,0,0,-0.0219,-0.0241,-0.0249,-0.0281,-0.0302,-0.0312,-0.034,-0.0359,-0.0363,-0.0388,-0.039,-0.0401,-0.0408,-0.0402,-0.0399,-0.0404,-0.0358,-0.0391,-0.0389,-0.0378,-0.0325,-0.0314,-0.0305,-0.0421,-0.0421,-0.0421,0,0,-0.0209,-0.0227,-0.0231,-0.0247,-0.0277,-0.0296,-0.0299,-0.0335,-0.0343,-0.0349,-0.0366,-0.0366,-0.0375,-0.0374,-0.0375,-0.0356,-0.0346,-0.036,-0.0329,-0.0277,-0.0268,-0.0259,-0.0241,-0.0231,-0.0356,-0.0356,-0.0356,0,-0.0198,-0.0212,-0.0236,-0.0242,-0.0254,-0.0285,-0.029,-0.03,-0.033,-0.0332,-0.0343,-0.0352,-0.0357,-0.0345,-0.0338,-0.0347,-0.0325,-0.0343,-0.0271,-0.0262,-0.0254,-0.0237,-0.0226,-0.0354,-0.0354,-0.0354,-0.0355,0,-0.0193,-0.02,-0.0203,-0.0219,-0.023,-0.024,-0.0261,-0.0265,-0.0279,-0.0293,-0.029,-0.0302,-0.0303,-0.0306,-0.0314,-0.0266,-0.0275,-0.0275,-0.0277,-0.0241,-0.0227,-0.0216,-0.0352,-0.0352,-0.0353,-0.0353,0,0,-0.0182,-0.0197,-0.0197,-0.0199,-0.022,-0.023,-0.0225,-0.0235,-0.0233,-0.0246,-0.024,-0.0238,-0.0248,-0.0248,-0.0261,-0.0218,-0.0148,-0.0216,-0.0214,-0.0193,-0.0048,-0.0095,-0.0089,-0.0127,-0.0125,-0.0123,-0.0067,0,-0.0172,-0.0173,-0.0184,-0.0182,-0.0185,-0.0202,-0.0197,-0.0205,-0.0213,-0.0211,-0.0213,-0.0212,-0.0225,-0.0225,-0.0183,-0.0158,-0.0115,-0.0164,-0.009,-0.0089,-0.0129,-0.0075,-0.0115,-0.0059,-0.0057,-0.0055,-0.0054,0,-0.0166,-0.0167,-0.0161,-0.0166,-0.0169,-0.0167,-0.0167,-0.0169,-0.0167,-0.0172,-0.0166,-0.0175,-0.0136,-0.0147,-0.0065,-0.0093,-0.006,-0.0039,-0.0036,-0.0079,-0.0115,-0.0099,-0.0034,-0.0036,-0.0037,-0.0039,-0.004,0,-0.0149,-0.0151,-0.0144,-0.0146,-0.0154,-0.0148,-0.015,-0.0153,-0.0152,-0.0143,-0.0138,-0.0111,-0.0096,-0.0035,-0.0014,-0.0017,0.0071,0.0072,0.0055,0.005,0.0062,0.0052,0.0151,0.0151,0.0151,0.0151,0.0151,0,-0.0137,-0.0134,-0.0132,-0.0129,-0.012,-0.013,-0.0121,-0.0123,-0.0121,-0.012,-0.0113,-0.0115,-0.0058,-0.0026,0.0011,0.0054,0.0095,0.0076,0.0076,0.0068,0.0059,0.0068,0.0058,0.0153,0.0152,0.0152,0.0152,0,-0.0127,-0.0125,-0.0118,-0.0115,-0.0113,-0.0106,-0.0106,-0.0104,-0.0097,-0.0093,-0.0085,-0.0086,-0.0053,-0.0022,0.0056,0.0076,0.0124,0.0125,0.009,0.0084,0.0066,0.0056,0.0146,0.0145,0.0145,0.0144,0.0144,0,-0.0123,-0.0116,-0.0105,-0.0104,-0.0103,-0.0094,-0.0095,-0.0091,-0.0094,-0.0091,-0.0093,-0.0073,-0.0075,-0.0008,0.0025,0.009,0.0089,0.0126,0.0129,0.0082,0.0073,0.0064,0.0056,0.0142,0.0142,0.0142,0.0142,0,-0.0119,-0.0113,-0.0107,-0.0103,-0.0098,-0.0098,-0.0097,-0.0092,-0.0095,-0.0079,-0.0093,-0.0078,-0.0062,-0.0031,0.0005,0.0049,0.0118,0.0118,0.0121,0.0125,0.0078,0.0067,0.006,0.0139,0.0139,0.014,0.014,0,-0.0115,-0.0112,-0.0108,-0.0107,-0.0103,-0.0113,-0.0106,-0.0111,-0.0106,-0.0096,-0.011,-0.0098,-0.0088,-0.0055,-0.0024,0.0014,0.0037,0.0075,0.0081,0.0084,0.0039,-0.0031,0.0015,0,0,0,0,0,-0.011,-0.0117,-0.012,-0.012,-0.0121,-0.0126,-0.0121,-0.0117,-0.0104,-0.0111,-0.0107,-0.0102,-0.0071,-0.0073,-0.004,-0.0035,0.0042,0.0006,0.0089,0.0124,0.0127,0.008,0,0,0,0,0,0,-0.0112,-0.0111,-0.0123,-0.014,-0.0147,-0.0153,-0.0151,-0.0145,-0.0147,-0.0132,-0.0125,-0.0092,-0.0074,-0.0098,-0.0045,-0.0035,0.0026,0.0024,0.0025,0.0123,0.0125,0.0128,0.008,0,0,0,0,0]},{"header":{"parameterUnit":"m.s-1","parameterCategory":2,"la1":30.2991,"la2":30.254,"lo1":-89.0895,"lo2":-89.0444,"dy":0.0017,"dx":0.0017,"nx":28,"ny":28,"refTime":"2024-08-27T03:00:00:Z","depth":"4","parameterNumber":3,"parameterNumberName":"V-component_of_CURRENTS"},"data":[0,0,0,0,0,0,0,0,0,0,0,0,0,0,0,0,0,0,0,0,0,0,0,0,0,0,0,0,0,0,0,0,0,0,0,0,0,0,0,0,0,0,0,0,0,0,0,0,0,0,0,0,0,0,0,0,0,0,0.0478,0.0478,0,0.0471,0.0471,0.0471,0.0465,0.0465,0.0465,0.0465,0.047,0.047,0.047,0,0,0,0,0,0,0,0,0,0,0,0,0,0.0459,0.046,0.0478,0.0478,0.0478,0.0471,0.0471,0.0471,0.0465,0.0465,0.0465,0.0465,0.047,0.047,0.047,0,0,0,0,0,0,0,0,0,0,0,0,0,0.0461,0.046,0.0478,0.0475,0.0474,0.0471,0.0471,0.0471,0.0465,0.0465,0.0465,0.0465,0.047,0.047,0.047,0.0472,0,0,0.0471,0.0471,0,0,0,0,0,0,0,0,0.0461,0.0462,0.0475,0.0475,0.0474,0.0469,0.0466,0.0472,0.0465,0.0468,0.0465,0.0465,0.0471,0.0471,0.0469,0.0472,0.0473,0.0471,0.0471,0.0471,0.0471,0,0,0,0,0,0,0,0.0461,0.0462,0.0475,0.0475,0.0475,0.0464,0.0465,0.0467,0.047,0.0468,0.0467,0.0467,0.0471,0.0469,0.0469,0.0473,0.0471,0.0471,0.0471,0.0471,0.0541,0.0542,0,0,0,0,0,0,0.0464,0.0462,0.0475,0.0475,0.0468,0.0465,0.0465,0.0471,0.0469,0.0469,0.0468,0.0467,0.0469,0.0469,0.0469,0.051,0.0471,0.0471,0.0471,0.0539,0.0541,0.0543,0,0,0,0,0,0,0.0464,0.0466,0.0475,0.0468,0.0469,0.0465,0.0471,0.0471,0.0479,0.0469,0.0469,0.0478,0.0469,0.0469,0.0474,0.0508,0.0471,0.0472,0.0537,0.054,0.0542,0.0566,0,0,0,0,0,0,0.0463,0.0466,0.0475,0.0469,0.0469,0.048,0.0471,0.047,0.0479,0.0479,0.0478,0.0478,0.0469,0.0474,0.0474,0.0508,0.0472,0.0535,0.0538,0.0541,0.0563,0.0569,0.0574,0,0,0,0,0,0.0463,0.0475,0.0476,0.0478,0.0481,0.048,0.048,0.0476,0.048,0.0484,0.0481,0.0479,0.0496,0.0474,0.0475,0.0509,0.0533,0.0537,0.0541,0.056,0.0568,0.0574,0,0,0,0,0,0,0.047,0.0475,0.0476,0.049,0.0488,0.0479,0.0487,0.0485,0.0487,0.049,0.0482,0.0481,0.0504,0.0505,0.0482,0.0543,0.0522,0.0526,0.0537,0.0544,0.055,0.0546,0.0472,0,0,0,0,0,0.0478,0.049,0.0487,0.0499,0.0502,0.0498,0.05,0.0496,0.0494,0.0495,0.0497,0.0507,0.052,0.0528,0.0535,0.0558,0.0552,0.0589,0.0594,0.0599,0.0599,0.0616,0.0622,0.0556,0.0556,0.0556,0,0,0.0483,0.0488,0.0495,0.0502,0.0503,0.051,0.05,0.0505,0.0513,0.0496,0.0515,0.052,0.0529,0.0554,0.0568,0.0559,0.0616,0.0604,0.0607,0.0605,0.0621,0.0627,0.0632,0.0558,0.0558,0.0557,0,0,0.0497,0.0508,0.0521,0.0523,0.0527,0.0525,0.0531,0.053,0.0536,0.0546,0.0546,0.0563,0.0583,0.0593,0.0602,0.0645,0.0641,0.0668,0.0694,0.0711,0.0716,0.072,0.0716,0.072,0.0675,0.0675,0.0675,0,0.0504,0.0519,0.0523,0.0534,0.0538,0.0536,0.0545,0.0552,0.0553,0.0557,0.0559,0.0594,0.0601,0.0631,0.0653,0.0656,0.0661,0.0662,0.0716,0.072,0.0724,0.0719,0.0723,0.0677,0.0677,0.0677,0.0677,0,0.0521,0.0535,0.0544,0.056,0.0565,0.0572,0.0578,0.0589,0.0599,0.0599,0.0628,0.0635,0.0656,0.0677,0.0678,0.0724,0.0716,0.0714,0.0691,0.0732,0.0724,0.0728,0.0679,0.0679,0.0678,0.0678,0,0,0.0529,0.0552,0.0556,0.0563,0.0578,0.058,0.0603,0.0614,0.0623,0.0642,0.0658,0.0696,0.0701,0.0714,0.0727,0.075,0.0783,0.0754,0.0754,0.0737,0.0813,0.0747,0.0744,0.0795,0.0796,0.0797,0.0794,0,0.054,0.0562,0.0572,0.0591,0.06,0.0608,0.0624,0.0634,0.0645,0.0659,0.0681,0.0706,0.0717,0.0738,0.0761,0.079,0.0795,0.0783,0.0789,0.0788,0.0714,0.0747,0.08,0.0796,0.0797,0.0797,0.0798,0,0.055,0.0564,0.0585,0.06,0.0605,0.0618,0.0636,0.065,0.0669,0.0678,0.0705,0.072,0.0774,0.0767,0.0822,0.082,0.0816,0.0823,0.0823,0.0754,0.0729,0.0751,0.0804,0.0803,0.0803,0.0802,0.0802,0,0.0544,0.057,0.0587,0.0593,0.0613,0.0626,0.064,0.0656,0.0675,0.07,0.0727,0.0758,0.0805,0.0817,0.0853,0.0846,0.0892,0.0876,0.0797,0.0792,0.0839,0.0834,0.0879,0.0879,0.0879,0.0879,0.0879,0,0.0542,0.0556,0.0587,0.0593,0.0613,0.0627,0.0649,0.0661,0.0691,0.0721,0.0748,0.0779,0.0827,0.0862,0.0859,0.0851,0.0898,0.0802,0.0791,0.085,0.0847,0.084,0.0836,0.0879,0.0879,0.0879,0.0879,0,0.0526,0.0549,0.0568,0.0597,0.0611,0.0624,0.0668,0.0684,0.0719,0.0765,0.0789,0.0829,0.0874,0.0896,0.0917,0.0869,0.0856,0.0826,0.0885,0.0878,0.0735,0.0732,0.0732,0.073,0.0728,0.0726,0.0725,0,0.0517,0.0526,0.0569,0.0589,0.0606,0.0636,0.066,0.0694,0.0717,0.0789,0.0811,0.087,0.0893,0.0874,0.0878,0.0848,0.0824,0.0791,0.0758,0.0732,0.0722,0.0722,0.0722,0.0722,0.0721,0.0721,0.072,0,0.0496,0.0518,0.0536,0.0579,0.0611,0.0648,0.0687,0.0698,0.0748,0.0799,0.0825,0.0822,0.0852,0.0838,0.0825,0.0796,0.0806,0.0771,0.0774,0.0742,0.072,0.0712,0.0714,0.0714,0.0715,0.0715,0.0716,0,0.0483,0.0494,0.0529,0.0566,0.0611,0.0648,0.0664,0.0696,0.0724,0.0794,0.0795,0.0837,0.087,0.0809,0.0796,0.0771,0.0736,0.0679,0.0686,0.0693,0.0676,0.0641,0.0604,0,0,0,0,0,0.0471,0.0492,0.0518,0.0565,0.0611,0.0647,0.0682,0.0697,0.0743,0.0753,0.0773,0.0793,0.0765,0.0756,0.0717,0.0743,0.0728,0.0686,0.0666,0.0677,0.0685,0.0664,0,0,0,0,0,0,0.0465,0.0493,0.0511,0.0564,0.0601,0.0656,0.0677,0.0705,0.0698,0.0739,0.073,0.0749,0.0734,0.0816,0.0718,0.0711,0.0673,0.0696,0.0693,0.0673,0.068,0.0686,0.0667,0,0,0,0,0]}]]